DAL2416 KATL-CYUL

Flight info

Callsign DAL2416
Flight time 2h 7m
Altitude 37000
Route SMKEY2 BOBBD Q71 PSB J59 SYR DCT ART IMPAC4
Aircraft A320/M-SDE3FGHIRWY/LB1

Departure

Time 2026-04-30 20:24
Airport Hartsfield Jackson Atlanta International Airport (KATL)

Arrival

Time 2026-04-30 22:32
Airport Montreal / Pierre Elliott Trudeau International Airport (CYUL)
Time Latitude Longitude Altitude Speed Heading
2026-04-30 19:50 33.63743 -84.42890 1007 ft 0 kts 270°
2026-04-30 20:13 33.63743 -84.42886 1006 ft 3 kts 270°
2026-04-30 20:14 33.63743 -84.42855 1006 ft 4 kts 276°
2026-04-30 20:14 33.63737 -84.42825 1006 ft 4 kts 304°
2026-04-30 20:14 33.63718 -84.42806 1006 ft 3 kts 355°
2026-04-30 20:14 33.63710 -84.42806 1006 ft 0 kts 359°
2026-04-30 20:16 33.63717 -84.42806 1006 ft 3 kts
2026-04-30 20:17 33.63755 -84.42805 1006 ft 8 kts
2026-04-30 20:17 33.63827 -84.42805 1006 ft 12 kts
2026-04-30 20:17 33.63925 -84.42805 1006 ft 15 kts 360°
2026-04-30 20:17 33.64027 -84.42806 1006 ft 15 kts 359°
2026-04-30 20:18 33.64130 -84.42805 1006 ft 15 kts
2026-04-30 20:18 33.64233 -84.42803 1006 ft 15 kts 359°
2026-04-30 20:18 33.64337 -84.42805 1006 ft 15 kts 359°
2026-04-30 20:18 33.64440 -84.42796 1006 ft 15 kts 32°
2026-04-30 20:19 33.64469 -84.42687 1006 ft 14 kts 89°
2026-04-30 20:19 33.64469 -84.42614 1006 ft 13 kts 90°
2026-04-30 20:19 33.64467 -84.42455 1006 ft 16 kts 90°
2026-04-30 20:19 33.64469 -84.42325 1006 ft 15 kts 93°
2026-04-30 20:20 33.64490 -84.42216 1006 ft 13 kts 62°
2026-04-30 20:20 33.64532 -84.42128 1006 ft 12 kts 59°
2026-04-30 20:20 33.64542 -84.42043 1006 ft 11 kts 90°
2026-04-30 20:20 33.64542 -84.41927 1006 ft 16 kts 90°
2026-04-30 20:21 33.64541 -84.41797 1005 ft 15 kts 90°
2026-04-30 20:21 33.64542 -84.41682 1007 ft 14 kts 89°
2026-04-30 20:21 33.64541 -84.41546 1007 ft 18 kts 90°
2026-04-30 20:21 33.64543 -84.41387 1007 ft 20 kts 89°
2026-04-30 20:22 33.64543 -84.41217 1007 ft 21 kts 92°
2026-04-30 20:22 33.64538 -84.41039 1006 ft 22 kts 88°
2026-04-30 20:22 33.64545 -84.40847 1006 ft 23 kts 83°
2026-04-30 20:22 33.64567 -84.40722 1006 ft 10 kts 91°
2026-04-30 20:23 33.64572 -84.40644 1005 ft 9 kts 85°
2026-04-30 20:23 33.64578 -84.40580 1005 ft 7 kts 67°
2026-04-30 20:23 33.64612 -84.40564 1005 ft 5 kts 354°
2026-04-30 20:23 33.64660 -84.40585 1004 ft 10 kts 319°
2026-04-30 20:24 33.64682 -84.40792 1005 ft 54 kts 271°
2026-04-30 20:24 33.64681 -84.41556 1008 ft 126 kts 270°
2026-04-30 20:24 33.64691 -84.42829 1155 ft 167 kts 272°
2026-04-30 20:24 33.64679 -84.44224 1939 ft 166 kts 272°
2026-04-30 20:25 33.65001 -84.46949 3042 ft 179 kts 301°
2026-04-30 20:25 33.65614 -84.48355 3403 ft 200 kts 297°
2026-04-30 20:26 33.66905 -84.51755 4078 ft 249 kts 295°
2026-04-30 20:26 33.68449 -84.55712 5532 ft 267 kts 306°
2026-04-30 20:26 33.69783 -84.57266 6365 ft 271 kts 328°
2026-04-30 20:27 33.73474 -84.58116 8106 ft 279 kts
2026-04-30 20:27 33.77375 -84.57983 9704 ft 286 kts 357°
2026-04-30 20:28 33.81404 -84.57640 11241 ft 298 kts 12°
2026-04-30 20:28 33.85400 -84.55330 11921 ft 342 kts 24°
2026-04-30 20:29 33.89756 -84.52402 12826 ft 367 kts 24°
2026-04-30 20:30 33.96567 -84.47792 14765 ft 380 kts 22°
2026-04-30 20:30 34.03591 -84.43091 16563 ft 392 kts 21°
2026-04-30 20:31 34.10870 -84.38240 18248 ft 404 kts 20°
2026-04-30 20:32 34.18364 -84.33231 19867 ft 416 kts 20°
2026-04-30 20:32 34.23482 -84.29792 20887 ft 425 kts 20°
2026-04-30 20:33 34.26047 -84.28067 21398 ft 428 kts 20°
2026-04-30 20:33 34.31519 -84.25533 22340 ft 415 kts
2026-04-30 20:33 34.34360 -84.24871 22793 ft 418 kts
2026-04-30 20:34 34.40121 -84.23541 23669 ft 424 kts
2026-04-30 20:34 34.44974 -84.22411 24353 ft 429 kts
2026-04-30 20:35 34.47914 -84.21723 24745 ft 431 kts
2026-04-30 20:35 34.51836 -84.20800 25253 ft 434 kts
2026-04-30 20:35 34.56797 -84.19628 25875 ft 438 kts
2026-04-30 20:36 34.59802 -84.18920 26226 ft 440 kts
2026-04-30 20:36 34.62826 -84.18211 26568 ft 442 kts 360°
2026-04-30 20:36 34.68892 -84.16780 27301 ft 446 kts 359°
2026-04-30 20:37 34.71946 -84.16053 27673 ft 448 kts 359°
2026-04-30 20:37 34.75011 -84.15325 28039 ft 448 kts 359°
2026-04-30 20:37 34.78042 -84.14590 28335 ft 451 kts 359°
2026-04-30 20:37 34.81121 -84.13784 28626 ft 454 kts
2026-04-30 20:38 34.84209 -84.12924 28910 ft 456 kts
2026-04-30 20:38 34.87311 -84.12033 29196 ft 458 kts
2026-04-30 20:38 34.90416 -84.11135 29509 ft 458 kts
2026-04-30 20:39 34.96642 -84.09364 30030 ft 460 kts 359°
2026-04-30 20:39 34.99775 -84.08488 30245 ft 460 kts 359°
2026-04-30 20:39 35.02864 -84.07630 30462 ft 462 kts 359°
2026-04-30 20:40 35.09105 -84.05894 31181 ft 457 kts 359°
2026-04-30 20:40 35.12207 -84.05023 31514 ft 455 kts 359°
2026-04-30 20:40 35.15290 -84.04160 31811 ft 454 kts 359°
2026-04-30 20:41 35.21443 -84.02435 32375 ft 453 kts 359°
2026-04-30 20:41 35.24516 -84.01574 32652 ft 452 kts 358°
2026-04-30 20:41 35.27576 -84.00718 32942 ft 450 kts 358°
2026-04-30 20:41 35.30620 -83.99865 33211 ft 449 kts 358°
2026-04-30 20:42 35.33626 -83.99022 33509 ft 447 kts 358°
2026-04-30 20:42 35.36659 -83.98170 33719 ft 447 kts 358°
2026-04-30 20:42 35.42733 -83.96466 34212 ft 447 kts 358°
2026-04-30 20:43 35.45762 -83.95612 34504 ft 446 kts 358°
2026-04-30 20:43 35.48791 -83.94754 34820 ft 445 kts 358°
2026-04-30 20:43 35.51810 -83.93899 35074 ft 445 kts 358°
2026-04-30 20:44 35.57838 -83.92193 35581 ft 443 kts 358°
2026-04-30 20:44 35.60845 -83.91345 35791 ft 443 kts 358°
2026-04-30 20:44 35.66809 -83.89651 36290 ft 441 kts 358°
2026-04-30 20:45 35.72795 -83.87953 36670 ft 440 kts 358°
2026-04-30 20:45 35.75781 -83.87111 36874 ft 439 kts 358°
2026-04-30 20:45 35.78759 -83.86196 37002 ft 447 kts
2026-04-30 20:46 35.87353 -83.80881 37025 ft 467 kts 14°
2026-04-30 20:46 35.90189 -83.78922 37035 ft 467 kts 14°
2026-04-30 20:47 35.98693 -83.73074 37033 ft 466 kts 14°
2026-04-30 20:48 36.07207 -83.67223 37036 ft 467 kts 14°
2026-04-30 20:48 36.12880 -83.63316 37032 ft 466 kts 14°
2026-04-30 20:49 36.18545 -83.59403 37041 ft 467 kts 15°
2026-04-30 20:50 36.27054 -83.53516 37049 ft 467 kts 15°
2026-04-30 20:50 36.32731 -83.49574 37044 ft 468 kts 15°
2026-04-30 20:51 36.38426 -83.45613 37044 ft 469 kts 15°
2026-04-30 20:51 36.46934 -83.39686 37050 ft 469 kts 15°
2026-04-30 20:52 36.52629 -83.35715 37047 ft 469 kts 16°
2026-04-30 20:53 36.61173 -83.29760 37041 ft 469 kts 16°
2026-04-30 20:53 36.66866 -83.25772 37039 ft 469 kts 17°
2026-04-30 20:54 36.75382 -83.19792 37034 ft 471 kts 17°
2026-04-30 20:55 36.83957 -83.13771 37033 ft 472 kts 17°
2026-04-30 20:55 36.89687 -83.09717 37043 ft 472 kts 17°
2026-04-30 20:56 36.95213 -83.05205 37049 ft 491 kts 31°
2026-04-30 20:56 36.97636 -83.02101 37050 ft 505 kts 42°
2026-04-30 20:57 37.04131 -82.91629 37058 ft 507 kts 43°
2026-04-30 20:57 37.08465 -82.84654 37060 ft 507 kts 43°
2026-04-30 20:58 37.14830 -82.74109 37066 ft 508 kts 45°
2026-04-30 20:58 37.19036 -82.66978 37065 ft 508 kts 45°
2026-04-30 20:59 37.25360 -82.56312 37062 ft 507 kts 45°
2026-04-30 21:00 37.33780 -82.42143 37062 ft 506 kts 45°
2026-04-30 21:01 37.40077 -82.31469 37061 ft 506 kts 46°
2026-04-30 21:02 37.46357 -82.20804 37064 ft 505 kts 46°
2026-04-30 21:02 37.50783 -82.14010 37062 ft 493 kts 35°
2026-04-30 21:02 37.53348 -82.11302 37060 ft 482 kts 26°
2026-04-30 21:03 37.56116 -82.08930 37062 ft 479 kts 25°
2026-04-30 21:03 37.61651 -82.04205 37055 ft 480 kts 25°
2026-04-30 21:04 37.67165 -81.99461 37056 ft 480 kts 26°
2026-04-30 21:04 37.75404 -81.92335 37060 ft 480 kts 25°
2026-04-30 21:05 37.80933 -81.87566 37066 ft 480 kts 23°
2026-04-30 21:05 37.86460 -81.82793 37058 ft 481 kts 23°
2026-04-30 21:06 37.91981 -81.78014 37057 ft 481 kts 23°
2026-04-30 21:06 37.97474 -81.73243 37052 ft 482 kts 23°
2026-04-30 21:07 38.03005 -81.68428 37057 ft 481 kts 24°
2026-04-30 21:07 38.08533 -81.63608 37060 ft 481 kts 24°
2026-04-30 21:08 38.14045 -81.58809 37063 ft 482 kts 24°
2026-04-30 21:08 38.19581 -81.53983 37063 ft 482 kts 24°
2026-04-30 21:09 38.25107 -81.49137 37062 ft 482 kts 24°
2026-04-30 21:09 38.30602 -81.44310 37061 ft 482 kts 24°
2026-04-30 21:10 38.36134 -81.39450 37067 ft 483 kts 25°
2026-04-30 21:10 38.41671 -81.34563 37068 ft 483 kts 25°
2026-04-30 21:11 38.47173 -81.29711 37070 ft 483 kts 25°
2026-04-30 21:11 38.52715 -81.24813 37063 ft 483 kts 25°
2026-04-30 21:12 38.58210 -81.19937 37062 ft 483 kts 26°
2026-04-30 21:12 38.63737 -81.15033 37062 ft 483 kts 26°
2026-04-30 21:13 38.69259 -81.10132 37058 ft 483 kts 26°
2026-04-30 21:13 38.74800 -81.05207 37057 ft 483 kts 26°
2026-04-30 21:14 38.80283 -81.00316 37056 ft 483 kts 26°
2026-04-30 21:14 38.85804 -80.95385 37056 ft 483 kts 26°
2026-04-30 21:15 38.91315 -80.90445 37053 ft 483 kts 27°
2026-04-30 21:15 38.96794 -80.85506 37055 ft 484 kts 27°
2026-04-30 21:16 39.02153 -80.80194 37053 ft 494 kts 38°
2026-04-30 21:16 39.06818 -80.73608 37049 ft 498 kts 41°
2026-04-30 21:17 39.11442 -80.66964 37046 ft 498 kts 42°
2026-04-30 21:17 39.16058 -80.60302 37046 ft 498 kts 42°
2026-04-30 21:18 39.20645 -80.53673 37050 ft 498 kts 42°
2026-04-30 21:18 39.25261 -80.47006 37042 ft 498 kts 42°
2026-04-30 21:19 39.29872 -80.40331 37038 ft 498 kts 43°
2026-04-30 21:19 39.34478 -80.33650 37038 ft 498 kts 43°
2026-04-30 21:20 39.39090 -80.26948 37038 ft 499 kts 43°
2026-04-30 21:20 39.42924 -80.21364 37036 ft 499 kts 43°
2026-04-30 21:21 39.48268 -80.13548 37035 ft 498 kts 44°
2026-04-30 21:22 39.54399 -80.04538 37038 ft 497 kts 44°
2026-04-30 21:23 39.63544 -79.91117 37044 ft 498 kts 44°
2026-04-30 21:23 39.70413 -79.80984 37044 ft 497 kts 44°
2026-04-30 21:24 39.74949 -79.74273 37041 ft 497 kts 44°
2026-04-30 21:24 39.79509 -79.67518 37030 ft 496 kts 44°
2026-04-30 21:25 39.86344 -79.57357 37032 ft 496 kts 44°
2026-04-30 21:26 39.93142 -79.47227 37033 ft 496 kts 44°
2026-04-30 21:27 39.99964 -79.37023 37028 ft 497 kts 45°
2026-04-30 21:27 40.04469 -79.30263 37024 ft 496 kts 45°
2026-04-30 21:28 40.11264 -79.20029 37017 ft 496 kts 45°
2026-04-30 21:29 40.18071 -79.09821 37010 ft 495 kts 45°
2026-04-30 21:30 40.29486 -78.92990 36997 ft 496 kts 45°
2026-04-30 21:31 40.40848 -78.76053 36985 ft 495 kts 45°
2026-04-30 21:32 40.47679 -78.65846 36979 ft 495 kts 46°
2026-04-30 21:32 40.52215 -78.59028 36981 ft 495 kts 46°
2026-04-30 21:33 40.59027 -78.48797 36984 ft 496 kts 46°
2026-04-30 21:34 40.63537 -78.42004 36986 ft 496 kts 46°
2026-04-30 21:34 40.70340 -78.31698 36977 ft 495 kts 46°
2026-04-30 21:35 40.74860 -78.24842 36977 ft 495 kts 46°
2026-04-30 21:35 40.79378 -78.17969 36971 ft 495 kts 46°
2026-04-30 21:36 40.83855 -78.11137 36964 ft 495 kts 46°
2026-04-30 21:37 40.93347 -77.98086 36961 ft 487 kts 30°
2026-04-30 21:37 40.99144 -77.93516 36947 ft 485 kts 26°
2026-04-30 21:38 41.04993 -77.89029 36942 ft 485 kts 26°
2026-04-30 21:38 41.10795 -77.84568 36945 ft 485 kts 26°
2026-04-30 21:39 41.16643 -77.80056 36944 ft 486 kts 26°
2026-04-30 21:39 41.22490 -77.75535 36946 ft 486 kts 26°
2026-04-30 21:40 41.28335 -77.71026 36944 ft 486 kts 26°
2026-04-30 21:40 41.34138 -77.66534 36940 ft 485 kts 26°
2026-04-30 21:41 41.39972 -77.61996 36940 ft 485 kts 27°
2026-04-30 21:41 41.45797 -77.57442 36932 ft 485 kts 26°
2026-04-30 21:42 41.51619 -77.52889 36924 ft 485 kts 26°
2026-04-30 21:42 41.57451 -77.48335 36919 ft 485 kts 26°
2026-04-30 21:43 41.63234 -77.43808 36911 ft 485 kts 27°
2026-04-30 21:43 41.69060 -77.39245 36915 ft 485 kts 27°
2026-04-30 21:44 41.74892 -77.34653 36908 ft 485 kts 27°
2026-04-30 21:44 41.80719 -77.30060 36906 ft 485 kts 27°
2026-04-30 21:45 41.86500 -77.25490 36907 ft 485 kts 27°
2026-04-30 21:45 41.92313 -77.20877 36907 ft 485 kts 27°
2026-04-30 21:46 41.98128 -77.16257 36907 ft 485 kts 27°
2026-04-30 21:46 42.03960 -77.11621 36910 ft 485 kts 27°
2026-04-30 21:47 42.09742 -77.07020 36911 ft 485 kts 28°
2026-04-30 21:47 42.15546 -77.02377 36913 ft 485 kts 28°
2026-04-30 21:48 42.21351 -76.97726 36900 ft 485 kts 28°
2026-04-30 21:48 42.27155 -76.93076 36910 ft 485 kts 28°
2026-04-30 21:49 42.32973 -76.88403 36911 ft 485 kts 28°
2026-04-30 21:49 42.38770 -76.83728 36915 ft 485 kts 28°
2026-04-30 21:50 42.44572 -76.79041 36913 ft 485 kts 28°
2026-04-30 21:50 42.50337 -76.74378 36914 ft 485 kts 28°
2026-04-30 21:51 42.56142 -76.69668 36914 ft 486 kts 28°
2026-04-30 21:51 42.61947 -76.64939 36921 ft 486 kts 28°
2026-04-30 21:52 42.67742 -76.60215 36926 ft 485 kts 28°
2026-04-30 21:52 42.73502 -76.55520 36928 ft 485 kts 28°
2026-04-30 21:53 42.79295 -76.50790 36925 ft 485 kts 29°
2026-04-30 21:53 42.85080 -76.46039 36931 ft 485 kts 29°
2026-04-30 21:54 42.90858 -76.41288 36929 ft 485 kts 29°
2026-04-30 21:54 42.96637 -76.36546 36932 ft 485 kts 29°
2026-04-30 21:55 43.02412 -76.31778 36930 ft 484 kts 29°
2026-04-30 21:55 43.08131 -76.27019 36929 ft 485 kts 30°
2026-04-30 21:56 43.13953 -76.22369 36933 ft 483 kts 22°
2026-04-30 21:56 43.20318 -76.19708 36929 ft 475 kts
2026-04-30 21:57 43.26832 -76.18564 36927 ft 474 kts
2026-04-30 21:57 43.33386 -76.17422 36928 ft 474 kts
2026-04-30 21:58 43.39942 -76.16264 36929 ft 475 kts
2026-04-30 21:58 43.46495 -76.15097 36928 ft 475 kts
2026-04-30 21:59 43.53042 -76.13936 36921 ft 474 kts
2026-04-30 22:00 43.62842 -76.12222 36917 ft 474 kts
2026-04-30 22:00 43.72654 -76.10484 36914 ft 474 kts
2026-04-30 22:01 43.79206 -76.09329 36902 ft 474 kts
2026-04-30 22:01 43.85753 -76.08166 36901 ft 474 kts
2026-04-30 22:02 43.92288 -76.06878 36895 ft 476 kts 11°
2026-04-30 22:02 43.98431 -76.03602 36897 ft 479 kts 29°
2026-04-30 22:03 44.04071 -75.98653 36892 ft 480 kts 32°
2026-04-30 22:03 44.09698 -75.93659 36888 ft 480 kts 31°
2026-04-30 22:04 44.15335 -75.88674 36875 ft 480 kts 31°
2026-04-30 22:04 44.21036 -75.83622 34539 ft 495 kts 32°
2026-04-30 22:05 44.23964 -75.81020 33451 ft 500 kts 32°
2026-04-30 22:05 44.26914 -75.78390 32321 ft 504 kts 32°
2026-04-30 22:05 44.29880 -75.75739 31426 ft 502 kts 32°
2026-04-30 22:05 44.32767 -75.73157 30723 ft 496 kts 33°
2026-04-30 22:06 44.35660 -75.70571 30011 ft 490 kts 33°
2026-04-30 22:06 44.41344 -75.65474 28614 ft 480 kts 33°
2026-04-30 22:06 44.44148 -75.62955 27940 ft 476 kts 33°
2026-04-30 22:07 44.46915 -75.60470 27517 ft 466 kts 33°
2026-04-30 22:07 44.49616 -75.58043 27267 ft 458 kts 33°
2026-04-30 22:07 44.52286 -75.55641 27016 ft 454 kts 33°
2026-04-30 22:07 44.54904 -75.53281 26768 ft 452 kts 33°
2026-04-30 22:08 44.57548 -75.50896 26518 ft 451 kts 33°
2026-04-30 22:08 44.60187 -75.48515 26267 ft 449 kts 33°
2026-04-30 22:08 44.62814 -75.46146 26014 ft 448 kts 33°
2026-04-30 22:08 44.65433 -75.43779 25764 ft 446 kts 33°
2026-04-30 22:09 44.67163 -75.42209 25594 ft 445 kts 34°
2026-04-30 22:09 44.69768 -75.39843 25348 ft 445 kts 34°
2026-04-30 22:09 44.72248 -75.37274 25095 ft 441 kts 43°
2026-04-30 22:09 44.74409 -75.34229 24844 ft 438 kts 51°
2026-04-30 22:10 44.77047 -75.29958 24516 ft 436 kts 51°
2026-04-30 22:10 44.78390 -75.27793 24347 ft 434 kts 51°
2026-04-30 22:10 44.80374 -75.24596 24101 ft 433 kts 51°
2026-04-30 22:10 44.82356 -75.21400 23844 ft 431 kts 51°
2026-04-30 22:11 44.86264 -75.15085 23348 ft 427 kts 51°
2026-04-30 22:11 44.88212 -75.11932 23098 ft 426 kts 51°
2026-04-30 22:11 44.90155 -75.08781 22848 ft 424 kts 52°
2026-04-30 22:12 44.92086 -75.05637 22605 ft 422 kts 52°
2026-04-30 22:12 44.94003 -75.02507 22351 ft 420 kts 52°
2026-04-30 22:12 44.95913 -74.99383 22098 ft 419 kts 52°
2026-04-30 22:12 44.97798 -74.96265 21843 ft 416 kts 54°
2026-04-30 22:13 44.99392 -74.92955 21600 ft 410 kts 63°
2026-04-30 22:13 45.00796 -74.89444 21354 ft 409 kts 64°
2026-04-30 22:13 45.02184 -74.85952 21099 ft 407 kts 64°
2026-04-30 22:13 45.03567 -74.82465 20849 ft 405 kts 64°
2026-04-30 22:14 45.04944 -74.78994 20598 ft 403 kts 64°
2026-04-30 22:14 45.06316 -74.75538 20347 ft 402 kts 64°
2026-04-30 22:14 45.07683 -74.72089 20098 ft 400 kts 64°
2026-04-30 22:14 45.09028 -74.68692 19849 ft 399 kts 64°
2026-04-30 22:15 45.10383 -74.65266 19455 ft 397 kts 64°
2026-04-30 22:15 45.11728 -74.61865 18944 ft 395 kts 64°
2026-04-30 22:15 45.13109 -74.58506 18442 ft 393 kts 62°
2026-04-30 22:15 45.14538 -74.55203 17934 ft 391 kts 61°
2026-04-30 22:16 45.15987 -74.51940 17438 ft 389 kts 61°
2026-04-30 22:16 45.17413 -74.48756 17109 ft 385 kts 60°
2026-04-30 22:17 45.21643 -74.39191 15600 ft 380 kts 61°
2026-04-30 22:17 45.23029 -74.35996 15022 ft 380 kts 61°
2026-04-30 22:17 45.25785 -74.29590 13886 ft 379 kts 61°
2026-04-30 22:18 45.27155 -74.26402 13319 ft 378 kts 60°
2026-04-30 22:18 45.29883 -74.20048 12186 ft 374 kts 60°
2026-04-30 22:19 45.32563 -74.13807 11122 ft 368 kts 60°
2026-04-30 22:19 45.33886 -74.10717 10587 ft 364 kts 59°
2026-04-30 22:19 45.36616 -74.04973 10273 ft 336 kts 46°
2026-04-30 22:20 45.38300 -74.02743 10143 ft 323 kts 42°
2026-04-30 22:20 45.41487 -73.98608 9821 ft 303 kts 42°
2026-04-30 22:20 45.43035 -73.96587 9414 ft 302 kts 42°
2026-04-30 22:21 45.44592 -73.94551 8992 ft 302 kts 42°
2026-04-30 22:21 45.46136 -73.92533 8611 ft 300 kts 42°
2026-04-30 22:21 45.47673 -73.90522 8231 ft 298 kts 42°
2026-04-30 22:21 45.49177 -73.88554 7852 ft 296 kts 41°
2026-04-30 22:22 45.50691 -73.86579 7450 ft 294 kts 41°
2026-04-30 22:22 45.52184 -73.84636 7119 ft 288 kts 41°
2026-04-30 22:22 45.53661 -73.82713 6761 ft 284 kts 41°
2026-04-30 22:22 45.55117 -73.80807 6367 ft 283 kts 41°
2026-04-30 22:23 45.56558 -73.78918 5981 ft 281 kts 41°
2026-04-30 22:23 45.57992 -73.77039 5590 ft 278 kts 41°
2026-04-30 22:23 45.59417 -73.75169 5210 ft 277 kts 41°
2026-04-30 22:23 45.60808 -73.73337 4988 ft 268 kts 41°
2026-04-30 22:24 45.62125 -73.71602 4712 ft 252 kts 41°
2026-04-30 22:24 45.63373 -73.69956 4437 ft 237 kts 40°
2026-04-30 22:24 45.64560 -73.68391 4164 ft 229 kts 40°
2026-04-30 22:24 45.65717 -73.66869 4028 ft 224 kts 40°
2026-04-30 22:25 45.66862 -73.65363 4023 ft 224 kts 40°
2026-04-30 22:25 45.67995 -73.63874 4022 ft 223 kts 40°
2026-04-30 22:25 45.69142 -73.62366 4002 ft 224 kts 40°
2026-04-30 22:25 45.70266 -73.60813 4011 ft 225 kts 50°
2026-04-30 22:26 45.70608 -73.56593 3575 ft 224 kts 120°
2026-04-30 22:26 45.69549 -73.55022 3325 ft 220 kts 154°
2026-04-30 22:26 45.68128 -73.54183 3095 ft 221 kts 165°
2026-04-30 22:27 45.66656 -73.53723 3015 ft 220 kts 173°
2026-04-30 22:27 45.65133 -73.53549 3015 ft 220 kts 185°
2026-04-30 22:27 45.62397 -73.55082 3009 ft 205 kts 225°
2026-04-30 22:28 45.60398 -73.57719 3013 ft 194 kts 226°
2026-04-30 22:28 45.59409 -73.59020 2959 ft 191 kts 225°
2026-04-30 22:29 45.56494 -73.62856 2356 ft 184 kts 225°
2026-04-30 22:29 45.55560 -73.64084 2048 ft 181 kts 226°
2026-04-30 22:30 45.52355 -73.68297 1222 ft 142 kts 226°
2026-04-30 22:31 45.50193 -73.71144 663 ft 140 kts 226°
2026-04-30 22:32 45.48051 -73.73959 118 ft 135 kts 225°
2026-04-30 22:32 45.47084 -73.75230 110 ft 48 kts 223°
2026-04-30 22:33 45.46573 -73.75643 105 ft 20 kts 193°
2026-04-30 22:33 45.46322 -73.75723 104 ft 7 kts 193°
2026-04-30 22:34 45.46159 -73.75720 102 ft 11 kts 176°
2026-04-30 22:35 45.46118 -73.75838 102 ft 7 kts 275°
2026-04-30 22:36 45.45983 -73.75959 105 ft 11 kts 177°
2026-04-30 22:36 45.45895 -73.75953 105 ft 13 kts 172°
2026-04-30 22:37 45.45647 -73.75717 103 ft 16 kts 167°
2026-04-30 22:37 45.45535 -73.75686 105 ft 16 kts 169°
2026-04-30 22:37 45.45410 -73.75610 105 ft 8 kts 76°
2026-04-30 22:38 45.45458 -73.75532 105 ft 6 kts 343°
2026-04-30 22:38 45.45481 -73.75541 105 ft 0 kts 346°